Regional Weather Roundup
Issued by NWS

Home | Current Version | Previous Version | Graphics & Text | Print | Product List | Glossary On
Versions: 1 2 3 4 5 6 7 8 9 10 11 12 13 14 15 16 17 18 19 20 21 22 23 24 25 26 27 28 29 30 31 32 33 34 35 36 37 38 39 40 41 42 43 44 45 46 47 48 49 50
265
ASUS43 KIND 180659
RWRIN

WEATHER ROUNDUP FOR INDIANA
NATIONAL WEATHER SERVICE INDIANAPOLIS IN
200 AM EST WED JAN 18 2017

NOTE: "FAIR" INDICATES FEW OR NO CLOUDS BELOW 12,000 FEET WITH NO
SIGNIFICANT WEATHER AND/OR OBSTRUCTIONS TO VISIBILITY.

* - STATION DOES NOT REPORT WEATHER SUCH AS PRECIPITATION OR FOG.

+ - STATION NOT QUALITY CONTROLLED BY THE NATIONAL WEATHER SERVICE.
    USE DATA WITH CAUTION...ESPECIALLY DEWPOINT AND RELATIVE
    HUMIDITY OBSERVATIONS.

INZ001>003-010>013-019-020-180800-
NORTHWEST INDIANA

CITY           SKY/WX    TMP DP  RH WIND       PRES   REMARKS
MONTICELLO +   CLOUDY    35  33  94 W13G23    30.05R WCI  26

$$

LMZ046-743>745-180800-
SOUTHERN LAKE MICHIGAN

STATION/POSITION TIME  TEMP    WIND        PRES    WAVE
                       AIR SEA DIR/SP/G            HT
                 (UTC) (F)     (DEG/KT/KT) (MB)    (FT)
BURNS HARBOR     0640   34     270/ 10/ 12 1017.3R

$$

INZ004-005-014>016-021>024-180800-
NORTH CENTRAL INDIANA

CITY           SKY/WX    TMP DP  RH WIND       PRES   REMARKS
GOSHEN         CLOUDY    35  32  88 W12       29.99S FOG     WCI  27
PERU/GRISSOM   CLOUDY    36  36 100 W16       30.02R
SOUTH BEND     CLOUDY    34  33  96 W13       30.01R FOG     WCI  25

$$

INZ006>009-017-018-025>027-180800-
NORTHEAST INDIANA

CITY           SKY/WX    TMP DP  RH WIND       PRES   REMARKS
ANGOLA *+      CLOUDY    36  36 100 W9        29.97R
FORT WAYNE     LGT RAIN  36  33  89 W14       30.01R
KENDALLVILLE + CLOUDY    34  34  99 W13G20    29.98R FOG     WCI  25

$$

INZ028-029-035-036-043>045-051>053-180800-
WEST CENTRAL INDIANA

CITY           SKY/WX    TMP DP  RH WIND       PRES   REMARKS
CRAWFORDSVL +  CLOUDY    34  34 100 W10G17    30.09R WCI  26
LAFAYETTE      CLOUDY    35  34  96 W12       30.07R WCI  27
TERRE HAUTE    CLOUDY    38  34  85 W9        30.13R

$$

INZ030>032-037>040-046>048-054>057-064-065-180800-
CENTRAL INDIANA

CITY           SKY/WX    TMP DP  RH WIND       PRES   REMARKS
INDIANAPOLIS   DRIZZLE   36  34  92 W15       30.08R
-EAGLE CREEK   CLOUDY    37  33  85 W12       30.08R
KOKOMO +       CLOUDY    36  34  92 W14       30.06R FOG
MT COMFORT *+  CLOUDY    36  34  93 W15       30.07R
SHELBYVILLE    CLOUDY    39  34  82 W13       30.07R

$$

INZ033-034-041-042-049-050-058-059-180800-
EAST CENTRAL INDIANA

CITY           SKY/WX    TMP DP  RH WIND       PRES   REMARKS
MUNCIE         CLOUDY    37  34  89 W13       30.05R

$$

INZ060-061-067>069-081>083-085>088-180800-
SOUTHWEST INDIANA

CITY           SKY/WX    TMP DP  RH WIND       PRES   REMARKS
EVANSVILLE     CLOUDY    43  39  86 W7        30.16S
HUNTINGBURG *+ CLOUDY    41  38  89 W10       30.14S

$$

INZ062-063-066-070>080-084-089>092-180800-
SOUTH CENTRAL AND SOUTHEAST INDIANA

CITY           SKY/WX    TMP DP  RH WIND       PRES   REMARKS
BLOOMINGTON    CLOUDY    39  35  86 W9        30.10R
MADISON *+     CLOUDY    43  39  87 W7        30.10S
SEYMOUR +      CLOUDY    43  39  87 W12       30.10R

$$





USA.gov is the U.S. government's official web portal to all federal, state and local government web resources and services.